Location: Cactus School
(34.5700°N, 118.0931°W)
Time: 07:39:55
(UTC-07:00)

Vanguard 2 - Pass Details

Date: 01 May 2024
Orbit: 553 x 2914 km, 32.9° (Epoch: 22 May)

Event Time Altitude Azimuth Distance (km) Brightness Sun altitude
Rises 22:34:00 0° 235° (SW) 3,734 11.1 -30.5°
Reaches altitude 10° 22:36:15 10° 230° (SW) 3,016 10.5 -30.7°
Enters shadow 22:39:37 32° 216° (SW) 2,139 9.6 -31.2°
Exits shadow 22:53:15 18° 84° (E) 4,030 10.9 -32.8°
Drops below altitude 10° 22:56:15 10° 81° (E) 4,896 11.4 -33.1°
Sets 23:00:56 0° 78° (ENE) 6,218 12.0 -33.7°
